Location: Saint-Michel-des-Saints
(46.6688°N, 73.9573°W)
Time: 05:43:00
(UTC-04:00)

ISS - Visible Passes

Search period start: 20 October 2019 00:00
Search period end: 30 October 2019 00:00
Orbit: 411 x 421 km, 51.6° (Epoch: 20 October)

Date Brightness Start Highest point End Pass type
(mag) Time Alt. Az. Time Alt. Az. Time Alt. Az.
23 Oct -0.4 06:15:44 10° SE 06:16:33 11° SE 06:17:20 10° ESE visible
25 Oct -1.6 06:12:50 10° SSW 06:15:39 25° SE 06:18:29 10° E visible
26 Oct -1.1 05:25:28 12° S 05:27:12 16° SE 05:29:21 10° E visible
27 Oct -3.3 06:12:21 16° SW 06:14:55 58° SSE 06:18:14 10° ENE visible
28 Oct -2.6 05:26:09 36° SSE 05:26:20 36° SE 05:29:28 10° ENE visible
28 Oct -3.4 06:59:43 10° W 07:03:01 51° NNW 07:06:19 10° ENE visible
29 Oct -0.6 04:39:48 14° E 04:39:48 14° E 04:40:33 10° E visible
29 Oct -3.8 06:12:43 29° W 06:14:17 69° NNW 06:17:39 10° ENE visible
